Hourly Weather Roundup
Issued by NWS Central Illinois

Home | Current Version | Previous Version | Text Only | Print | Product List | Glossary On
Versions: 1 2 3 4 5 6 7 8 9 10 11 12 13 14 15 16 17 18 19 20 21 22 23 24 25 26 27 28 29 30 31 32 33 34 35 36 37 38 39 40 41 42 43 44 45 46 47 48 49 50
000
NZUS43 KILX 031010
HWRILX

AREA WEATHER ROUNDUP
NATIONAL WEATHER SERVICE, LINCOLN IL
500 AM CDT WED JUN 03 2015


CITY           SKY/WX    TMP DP  RH WIND       PRES   REMARKS
BLOOMINGTON    PTCLDY    56  55  96 SE10      30.06F
CHAMPAIGN      CLEAR     53  51  93 SE5       30.06S
DANVILLE       CLEAR     52  51  97 CALM      30.05R FOG
DECATUR        PTCLDY    54  53  97 CALM      30.06S FOG
EFFINGHAM      CLOUDY    58  55  92 CALM      30.08R FOG
FLORA          CLEAR     55  55  99 CALM      30.07R FOG
GALESBURG      CLEAR     56  53  91 SE5       30.02F
JACKSONVILLE   PTCLDY    59  56  91 S3        30.03S FOG
LACON          MOCLDY    56  53  89 CALM      30.03S
LAWRENCEVILLE  CLEAR     54  52  93 NE3       30.06S FOG
LITCHFIELD     PTCLDY    54  53  94 CALM      30.04F FOG
$$


CITY           SKY/WX    TMP DP  RH WIND       PRES   REMARKS
LINCOLN        PTCLDY    57  55  91 SE3       30.03F FOG
MACOMB         CLEAR     53  53  99 S3        30.04S FOG
MATTOON        CLOUDY    58  55  90 SE5       30.05S
MT CARMEL AP   CLOUDY    59  55  88 NE3       30.06S FOG
OLNEY-NOBLE AP CLOUDY    54  54 100 CALM      30.07R FOG
PARIS          CLEAR     53  52  96 CALM      30.08R
PEORIA         PTCLDY    59  54  83 SE6       30.04S
PONTIAC        PTCLDY    54  53  97 SE6       30.06F FOG
RANTOUL        CLEAR     55  54  94 CALM      30.07R FOG
ROBINSON       CLEAR     53  52  96 CALM      30.07F FOG
SPRINGFIELD    CLEAR     56  53  90 SE5       30.04S
TAYLORVILLE    MOCLDY    54  54 100 SE3       30.05S FOG
$$

...REGIONAL REPORTS...


CITY           SKY/WX    TMP DP  RH WIND       PRES   REMARKS
CHICAGO O`HARE MOCLDY    52  46  80 SE3       30.07S
KANKAKEE       CLEAR     51  50  97 CALM      30.08F FOG
MOLINE         CLEAR     56  50  80 CALM      30.02R
MOUNT VERNON   CLOUDY    54  48  82 CALM      30.06S
PITTSFIELD     PTCLDY    58  56  93 CALM      30.04S FOG
QUINCY         PTCLDY    58  55  90 S5        30.01F FOG
ROCKFORD       PTCLDY    54  48  80 SE6       30.08R
$$


CITY           SKY/WX    TMP DP  RH WIND       PRES   REMARKS
BURLINGTON     CLEAR     57  55  93 S5        30.00F
CEDAR RAPIDS   PTCLDY    54  54 100 SE5       29.99F
DES MOINES     MOCLDY    62  55  77 S10       29.94S
KIRKSVILLE     CLEAR     56  55  97 S7        30.00S
OTTUMWA        PTCLDY    58  56  93 SE8       29.97F
ST LOUIS       MOCLDY    61  54  77 S3        30.04S
$$


CITY           SKY/WX    TMP DP  RH WIND       PRES   REMARKS
TERRE HAUTE    CLEAR     51  49  92 CALM      30.07S FOG
EVANSVILLE     CLEAR     54  52  93 NW3       30.06R FOG
INDIANAPOLIS   PTCLDY    53  48  83 E5        30.06R
LAFAYETTE      CLEAR     48  48 100 E3        30.07S FOG
MADISON        PTCLDY    56  49  77 S6        30.05R
MILWAUKEE      MOCLDY    49  42  77 CALM      30.09R
$$




USA.gov is the U.S. government's official web portal to all federal, state and local government web resources and services.